User: anonymous   Login
Location: Unspecified
(0.0000°N, 0.0000°E)
Time: 09:15:16
(UTC+00:00)
Language:

DIAMOND BLUE - Orbit

View from above orbital plane
View from above orbital plane
View from above satellite
View from above satellite

Ground track
Ground track

The orbit data is extracted from the following two-line orbital elements,

1 42786U 17036X   18267.83880820 +.00001157 +00000-0 +54135-4 0  9991
2 42786 097.3912 325.8514 0013825 088.9996 271.2824 15.21656541069733
Epoch (UTC): 24 September 2018 20:07:53
Eccentricity: 0.0013825
inclination: 97.3912°
perigee height: 491 km
apogee height: 510 km
right ascension of ascending node: 325.8514°
argument of perigee: 88.9996°
revolutions per day: 15.21656541
mean anomaly at epoch: 271.2824°
orbit number at epoch: 6973

The dashed part of the orbit path shows where the satellite is in the earth's shadow,  

DLR